Weather History for Chehalis, WA

Change the Weather History Date:

Saturday, March 30, 2013

  Actual Average (KOLM) Record (KOLM)
Temperature  
Mean Temperature 52 °F 46 °F  
Max Temperature 68 °F 56 °F 76 °F (1995)
Min Temperature 37 °F 36 °F 22 °F (1954)
Degree Days  
Heating Degree Days 12 19  
Month to date heating degree days 617  
Since 1 July heating degree days 4339  
Cooling Degree Days 0 0  
Month to date cooling degree days 0  
Year to date cooling degree days 0  
Growing Degree Days 2 (Base 50)    
Moisture  
Dew Point 43 °F    
Average Humidity 71    
Maximum Humidity 100    
Minimum Humidity 46    
Precipitation  
Precipitation 0.00 in 0.16 in 0.75 in (1981)
Month to date precipitation 5.14  
Year to date precipitation 18.25  
Sea Level Pressure  
Sea Level Pressure 30.17 in    
Wind  
Wind Speed 4 mph (North)    
Max Wind Speed 14 mph    
Max Gust Speed 24 mph    
Visibility 8 miles    
Events Fog    
T = Trace of Precipitation, MM = Missing Value Source: NWS Daily Summary

Daily Weather History Graph

Daily Weather History Graph

Search for Another Location

Airport:

Trip Planner

Search our weather history database for the weather conditions in past years. The results will help you decide how hot, cold, wet, or windy it might be!

Date:

Astronomy

Mar. 30, 2013 Rise Set
Actual Time 6:54 AM PDT 7:38 PM PDT
Civil Twilight 6:24 AM PDT 8:09 PM PDT
Nautical Twilight 5:47 AM PDT 8:45 PM PDT
Astronomical Twilight 5:09 AM PDT 9:24 PM PDT
Moon No Moon Rise 8:40 AM PDT (3/30)
Length of Visible Light 13h 45m
Length of Day
12h 44m
Waning Gibbous, 85% of the Moon is Illuminated
Mar 30
Waning Gibbous
Apr 2
Last Quarter
Apr 10
New
Apr 18
First Quarter
Apr 25
Full

Hourly Weather History & Observations

Time (PDT) Temp. Windchill Dew Point Humidity Pressure Visibility Wind Dir Wind Speed Gust Speed Precip Events Conditions
12:15 AM 46.4 °F - 42.8 °F 87% 30.25 in 10.0 mi Calm Calm - N/A   Clear
12:35 AM 46.4 °F - 42.8 °F 87% 30.25 in 10.0 mi Calm Calm - N/A   Clear
12:55 AM 46.4 °F 45.2 °F 42.8 °F 87% 30.25 in 9.0 mi East 3.5 mph - N/A   Clear
1:15 AM 46.4 °F - 42.8 °F 87% 30.25 in 10.0 mi Calm Calm - N/A   Clear
1:35 AM 44.6 °F - 42.8 °F 93% 30.25 in 10.0 mi Calm Calm - N/A   Clear
1:55 AM 44.6 °F - 42.8 °F 93% 30.26 in 8.0 mi Calm Calm - N/A   Clear
2:15 AM 44.6 °F - 41.0 °F 87% 30.25 in 10.0 mi Calm Calm - N/A   Clear
2:35 AM 44.6 °F - 41.0 °F 87% 30.25 in 10.0 mi Calm Calm - N/A   Clear
2:55 AM 41.0 °F - 41.0 °F 100% 30.25 in 10.0 mi Calm Calm - N/A   Clear
3:15 AM 41.0 °F - 41.0 °F 100% 30.25 in 10.0 mi Calm Calm - N/A   Clear
3:35 AM 41.0 °F - 41.0 °F 100% 30.25 in 8.0 mi Calm Calm - N/A   Clear
4:15 AM 41.0 °F 39.0 °F 39.2 °F 93% 30.25 in 5.0 mi SSW 3.5 mph - N/A   Clear
4:35 AM 39.2 °F - 39.2 °F 100% 30.25 in 2.5 mi Calm Calm - N/A   Clear
4:55 AM 39.2 °F - 39.2 °F 100% 30.24 in 3.0 mi Calm Calm - N/A   Clear
5:15 AM 39.2 °F - 37.4 °F 93% 30.24 in 7.0 mi Calm Calm - N/A   Clear
5:35 AM 37.4 °F - 37.4 °F 100% 30.24 in 2.0 mi Calm Calm - N/A   Clear
6:15 AM 37.4 °F - 37.4 °F 100% 30.24 in 0.5 mi Calm Calm - N/A Fog Fog
6:35 AM 37.4 °F - 37.4 °F 100% 30.24 in 0.5 mi Calm Calm - N/A Fog Fog
6:55 AM 37.4 °F - 37.4 °F 100% 30.24 in 0.5 mi Calm Calm - N/A Fog Fog
7:15 AM 37.4 °F - 35.6 °F 93% 30.24 in 0.2 mi Calm Calm - N/A Fog Fog
7:35 AM 37.4 °F - 37.4 °F 100% 30.24 in 0.2 mi Calm Calm - N/A Fog Fog
7:55 AM 37.4 °F - 37.4 °F 100% 30.24 in 0.2 mi Calm Calm - N/A Fog Fog
8:15 AM 39.2 °F 37.0 °F 39.2 °F 100% 30.24 in 3.0 mi SSW 3.5 mph - N/A   Clear
8:35 AM 39.2 °F - 39.2 °F 100% 30.24 in 8.0 mi Calm Calm - N/A   Clear
9:15 AM 44.6 °F - 44.6 °F 100% 30.24 in 5.0 mi Calm Calm - N/A   Clear
9:35 AM 48.2 °F - 44.6 °F 87% 30.23 in 5.0 mi Calm Calm - N/A   Clear
9:55 AM 50.0 °F - 46.4 °F 87% 30.23 in 10.0 mi North 5.8 mph - N/A   Clear
10:15 AM 51.8 °F - 46.4 °F 82% 30.22 in 10.0 mi North 5.8 mph - N/A   Clear
10:35 AM 53.6 °F - 46.4 °F 77% 30.22 in 10.0 mi North 8.1 mph - N/A   Clear
10:55 AM 55.4 °F - 46.4 °F 72% 30.21 in 10.0 mi North 8.1 mph 16.1 mph N/A   Clear
11:15 AM 57.2 °F - 44.6 °F 63% 30.21 in 10.0 mi NNE 13.8 mph - N/A   Clear
11:35 AM 59.0 °F - 44.6 °F 59% 30.21 in 10.0 mi NNE 12.7 mph - N/A   Clear
11:55 AM 60.8 °F - 44.6 °F 55% 30.21 in 10.0 mi North 12.7 mph 24.2 mph N/A   Clear
12:15 PM 62.6 °F - 44.6 °F 52% 30.20 in 10.0 mi NNE 13.8 mph 18.4 mph N/A   Clear
12:35 PM 62.6 °F - 46.4 °F 55% 30.20 in 10.0 mi North 11.5 mph 16.1 mph N/A   Clear
12:55 PM 62.6 °F - 46.4 °F 55% 30.19 in 7.0 mi NNE 13.8 mph 18.4 mph N/A   Clear
1:15 PM 64.4 °F - 46.4 °F 52% 30.19 in 10.0 mi NNE 13.8 mph - N/A   Clear
1:35 PM 64.4 °F - 46.4 °F 52% 30.18 in 10.0 mi North 12.7 mph 16.1 mph N/A   Clear
1:55 PM 64.4 °F - 46.4 °F 52% 30.17 in 9.0 mi NNE 12.7 mph 17.3 mph N/A   Clear
2:15 PM 66.2 °F - 46.4 °F 49% 30.16 in 10.0 mi North 10.4 mph 18.4 mph N/A   Clear
2:35 PM 66.2 °F - 46.4 °F 49% 30.15 in 10.0 mi North 11.5 mph 16.1 mph N/A   Clear
2:55 PM 68.0 °F - 46.4 °F 46% 30.14 in 10.0 mi North 10.4 mph - N/A   Clear
3:15 PM 68.0 °F - 48.2 °F 49% 30.14 in 10.0 mi NNE 11.5 mph 16.1 mph N/A   Clear
3:35 PM 68.0 °F - 46.4 °F 46% 30.13 in 10.0 mi NNE 11.5 mph 16.1 mph N/A   Clear
3:55 PM 68.0 °F - 48.2 °F 49% 30.12 in 10.0 mi North 11.5 mph 16.1 mph N/A   Clear
4:15 PM 68.0 °F - 48.2 °F 49% 30.11 in 9.0 mi North 11.5 mph - N/A   Clear
4:35 PM 68.0 °F - 46.4 °F 46% 30.11 in 5.0 mi North 9.2 mph 16.1 mph N/A   Haze
4:55 PM 68.0 °F - 46.4 °F 46% 30.10 in 10.0 mi North 9.2 mph 16.1 mph N/A   Clear
5:15 PM 68.0 °F - 48.2 °F 49% 30.09 in 10.0 mi North 10.4 mph - N/A   Clear
5:35 PM 68.0 °F - 46.4 °F 46% 30.09 in 10.0 mi North 10.4 mph - N/A   Clear
5:55 PM 68.0 °F - 46.4 °F 46% 30.08 in 9.0 mi North 11.5 mph - N/A   Clear
6:15 PM 66.2 °F - 46.4 °F 49% 30.08 in 10.0 mi North 11.5 mph 16.1 mph N/A   Clear
6:35 PM 66.2 °F - 44.6 °F 46% 30.07 in 10.0 mi North 11.5 mph - N/A   Clear
6:55 PM 64.4 °F - 44.6 °F 49% 30.07 in 10.0 mi North 10.4 mph - N/A   Clear
7:15 PM 64.4 °F - 44.6 °F 49% 30.07 in 10.0 mi North 8.1 mph 16.1 mph N/A   Clear
7:35 PM 62.6 °F - 44.6 °F 52% 30.06 in 10.0 mi North 8.1 mph - N/A   Clear
8:15 PM 59.0 °F - 41.0 °F 51% 30.06 in 10.0 mi North 8.1 mph - N/A   Clear
8:35 PM 59.0 °F - 41.0 °F 51% 30.06 in 10.0 mi North 8.1 mph - N/A   Clear
8:55 PM 57.2 °F - 41.0 °F 55% 30.06 in 10.0 mi North 9.2 mph - N/A   Clear
9:15 PM 57.2 °F - 41.0 °F 55% 30.06 in 10.0 mi North 10.4 mph - N/A   Clear
9:35 PM 57.2 °F - 41.0 °F 55% 30.06 in 10.0 mi North 9.2 mph - N/A   Clear
9:55 PM 55.4 °F - 41.0 °F 58% 30.06 in 10.0 mi North 9.2 mph - N/A   Clear
10:15 PM 55.4 °F - 41.0 °F 58% 30.06 in 10.0 mi North 9.2 mph - N/A   Clear
10:35 PM 55.4 °F - 42.8 °F 63% 30.07 in 10.0 mi North 9.2 mph - N/A   Clear
10:55 PM 53.6 °F - 42.8 °F 67% 30.06 in 10.0 mi North 8.1 mph - N/A   Clear
11:15 PM 53.6 °F - 42.8 °F 67% 30.07 in 10.0 mi North 5.8 mph - N/A   Clear
11:35 PM 53.6 °F - 42.8 °F 67% 30.07 in 10.0 mi North 5.8 mph - N/A   Clear